Weather History for Windom, MN

Change the Weather History Date:

Saturday, July 28, 2012

  Actual Average Record
Temperature  
Mean Temperature 67 °F -  
Max Temperature 77 °F 83 °F 101 °F (1955)
Min Temperature 57 °F 60 °F 44 °F (2013)
Cooling Degree Days 2    
Growing Degree Days 17 (Base 50)    
Moisture  
Dew Point 62 °F    
Average Humidity 82    
Maximum Humidity 100    
Minimum Humidity 65    
Precipitation  
Precipitation 0.00 in - - ()
Sea Level Pressure  
Sea Level Pressure 30.08 in    
Wind  
Wind Speed 5 mph (SSE)    
Max Wind Speed 15 mph    
Max Gust Speed 21 mph    
Visibility 10 miles    
Events Rain , Thunderstorm    
Averages and records for this station are not official NWS values.
T = Trace of Precipitation, MM = Missing Value Source: NWS Daily Summary

Daily Weather History Graph

Daily Weather History Graph

Search for Another Location

Airport:

Trip Planner

Search our weather history database for the weather conditions in past years. The results will help you decide how hot, cold, wet, or windy it might be!

Date:

Astronomy

Jul. 28, 2012 Rise Set
Actual Time 6:05 AM CDT 8:48 PM CDT
Civil Twilight 5:31 AM CDT 9:21 PM CDT
Nautical Twilight 4:49 AM CDT 10:03 PM CDT
Astronomical Twilight 4:01 AM CDT 10:51 PM CDT
Moon 4:55 PM CDT (7/28) 1:24 AM CDT (7/28)
Length of Visible Light 15h 49m
Length of Day
14h 43m
Waxing Gibbous, 76% of the Moon is Illuminated
Jul 28
Waxing Gibbous
Aug 1
Full
Aug 9
Last Quarter
Aug 17
New
Aug 24
First Quarter

Hourly Weather History & Observations

Time (CDT) Temp. Dew Point Humidity Pressure Visibility Wind Dir Wind Speed Gust Speed Precip Events Conditions
12:12 AM 60.8 °F 55.4 °F 82% 30.12 in 10.0 mi Calm Calm - N/A   Clear
12:32 AM 59.0 °F 55.4 °F 88% 30.12 in 10.0 mi Calm Calm - N/A   Clear
12:52 AM 59.0 °F 57.2 °F 94% 30.11 in 10.0 mi Calm Calm - N/A   Clear
1:33 AM 57.2 °F 55.4 °F 94% 30.12 in 10.0 mi Calm Calm - N/A   Clear
1:52 AM 57.2 °F 55.4 °F 94% 30.11 in 10.0 mi Calm Calm - N/A   Clear
2:12 AM 57.2 °F 57.2 °F 100% 30.10 in 10.0 mi Calm Calm - N/A   Clear
2:33 AM 57.2 °F 55.4 °F 94% 30.13 in 10.0 mi Calm Calm - N/A   Clear
2:52 AM 59.0 °F 57.2 °F 94% 30.12 in 10.0 mi Calm Calm - N/A   Clear
3:12 AM 57.2 °F 55.4 °F 94% 30.11 in 10.0 mi Calm Calm - N/A   Clear
3:33 AM 57.2 °F 57.2 °F 100% 30.11 in 10.0 mi Calm Calm - N/A   Clear
3:52 AM 57.2 °F 55.4 °F 94% 30.11 in 10.0 mi Calm Calm - N/A   Clear
4:12 AM 57.2 °F 57.2 °F 100% 30.10 in 10.0 mi Calm Calm - N/A   Clear
4:33 AM 59.0 °F 57.2 °F 94% 30.09 in 10.0 mi ESE 4.6 mph - N/A   Clear
4:52 AM 62.6 °F 59.0 °F 88% 30.11 in 10.0 mi SE 4.6 mph - N/A   Clear
5:12 AM 62.6 °F 59.0 °F 88% 30.13 in 10.0 mi Calm Calm - N/A   Clear
5:33 AM 62.6 °F 60.8 °F 94% 30.16 in 10.0 mi SSW 6.9 mph - N/A   Clear
5:52 AM 64.4 °F 60.8 °F 88% 30.16 in 10.0 mi South 3.5 mph - N/A   Clear
6:12 AM 64.4 °F 60.8 °F 88% 30.16 in 10.0 mi South 5.8 mph - N/A   Clear
6:33 AM 64.4 °F 60.8 °F 88% 30.14 in 10.0 mi ESE 3.5 mph - N/A   Clear
6:52 AM 64.4 °F 60.8 °F 88% 30.12 in 10.0 mi East 5.8 mph - N/A   Clear
7:12 AM 64.4 °F 62.6 °F 94% 30.10 in 10.0 mi East 5.8 mph - N/A   Clear
7:33 AM 64.4 °F 60.8 °F 88% 30.09 in 10.0 mi East 6.9 mph - N/A   Clear
7:52 AM 66.2 °F 62.6 °F 88% 30.11 in 10.0 mi South 6.9 mph - N/A   Clear
8:13 AM 66.2 °F 62.6 °F 88% 30.12 in 10.0 mi SSE 10.4 mph - N/A   Clear
8:33 AM 66.2 °F 62.6 °F 88% 30.11 in 10.0 mi SE 9.2 mph - N/A   Clear
8:52 AM 66.2 °F 62.6 °F 88% 30.11 in 10.0 mi SE 8.1 mph - N/A   Clear
9:13 AM 68.0 °F 62.6 °F 83% 30.12 in 10.0 mi SE 8.1 mph - N/A Rain Light Rain
9:32 AM 66.2 °F 62.6 °F 88% 30.12 in 10.0 mi South 11.5 mph - N/A   Clear
9:52 AM 68.0 °F 62.6 °F 83% 30.11 in 10.0 mi SSE 12.7 mph - N/A   Scattered Clouds
10:13 AM 69.8 °F 62.6 °F 78% 30.11 in 10.0 mi SSE 11.5 mph 17.3 mph N/A   Scattered Clouds
10:52 AM 69.8 °F 62.6 °F 78% 30.13 in 10.0 mi SSW 15.0 mph 20.7 mph N/A   Clear
11:13 AM 69.8 °F 62.6 °F 78% 30.13 in 10.0 mi South 13.8 mph - N/A   Scattered Clouds
11:32 AM 69.8 °F 62.6 °F 78% 30.12 in 10.0 mi SSE 9.2 mph - N/A   Scattered Clouds
11:52 AM 69.8 °F 62.6 °F 78% 30.12 in 10.0 mi South 12.7 mph 17.3 mph N/A   Scattered Clouds
12:13 PM 71.6 °F 64.4 °F 78% 30.11 in 10.0 mi South 10.4 mph 17.3 mph N/A   Clear
12:32 PM 73.4 °F 64.4 °F 73% 30.09 in 10.0 mi SSE 10.4 mph 16.1 mph N/A   Clear
12:52 PM 75.2 °F 64.4 °F 69% 30.09 in 10.0 mi South 9.2 mph - N/A   Clear
1:13 PM 77.0 °F 64.4 °F 65% 30.09 in 10.0 mi SSE 10.4 mph - N/A   Clear
1:32 PM 73.4 °F 64.4 °F 73% 30.08 in 10.0 mi South 8.1 mph - N/A   Clear
1:53 PM 73.4 °F 64.4 °F 73% 30.06 in 10.0 mi South 9.2 mph - N/A Thunderstorm Clear
2:12 PM 77.0 °F 64.4 °F 65% 30.08 in 10.0 mi SSE 11.5 mph - N/A   Scattered Clouds
2:33 PM 77.0 °F 64.4 °F 65% 30.07 in 10.0 mi South 10.4 mph - N/A   Scattered Clouds
2:53 PM 77.0 °F 64.4 °F 65% 30.06 in 10.0 mi South 11.5 mph - N/A   Clear
3:12 PM 75.2 °F 64.4 °F 69% 30.06 in 10.0 mi SSE 9.2 mph - N/A   Clear
3:33 PM 73.4 °F 64.4 °F 73% 30.07 in 10.0 mi SE 11.5 mph 16.1 mph N/A Rain Light Rain
3:53 PM 73.4 °F 64.4 °F 73% 30.07 in 10.0 mi SE 10.4 mph 13.8 mph N/A   Clear
4:12 PM 73.4 °F 62.6 °F 69% 30.06 in 10.0 mi SE 10.4 mph - N/A   Clear
4:33 PM 73.4 °F 64.4 °F 73% 30.05 in 10.0 mi SE 8.1 mph - N/A   Clear
4:52 PM 73.4 °F 64.4 °F 73% 30.06 in 10.0 mi ESE 12.7 mph - N/A   Scattered Clouds
5:12 PM 75.2 °F 64.4 °F 69% 30.05 in 10.0 mi SE 8.1 mph - N/A   Clear
5:33 PM 73.4 °F 64.4 °F 73% 30.05 in 10.0 mi ESE 8.1 mph - N/A   Scattered Clouds
5:52 PM 73.4 °F 64.4 °F 73% 30.05 in 10.0 mi South 8.1 mph - N/A   Scattered Clouds
6:12 PM 73.4 °F 64.4 °F 73% 30.04 in 10.0 mi South 5.8 mph - N/A   Scattered Clouds
6:33 PM 71.6 °F 64.4 °F 78% 30.04 in 10.0 mi South 6.9 mph - N/A   Mostly Cloudy
6:52 PM 71.6 °F 64.4 °F 78% 30.04 in 10.0 mi SW 5.8 mph - N/A   Mostly Cloudy
7:12 PM 71.6 °F 64.4 °F 78% 30.04 in 10.0 mi SW 8.1 mph - N/A   Mostly Cloudy
7:33 PM 71.6 °F 64.4 °F 78% 30.04 in 10.0 mi SSW 8.1 mph - N/A   Mostly Cloudy
7:53 PM 71.6 °F 64.4 °F 78% 30.04 in 10.0 mi SSW 8.1 mph - N/A   Overcast
8:12 PM 71.6 °F 64.4 °F 78% 30.03 in 10.0 mi SSW 9.2 mph - N/A   Mostly Cloudy
8:33 PM 71.6 °F 64.4 °F 78% 30.02 in 10.0 mi SSW 6.9 mph - N/A   Scattered Clouds
8:52 PM 69.8 °F 64.4 °F 83% 30.03 in 10.0 mi South 4.6 mph - N/A   Mostly Cloudy
9:12 PM 69.8 °F 64.4 °F 83% 30.02 in 10.0 mi South 4.6 mph - N/A   Overcast
9:33 PM 69.8 °F 64.4 °F 83% 30.02 in 10.0 mi South 3.5 mph - N/A   Overcast
9:52 PM 69.8 °F 64.4 °F 83% 30.03 in 10.0 mi SSE 3.5 mph - N/A   Overcast
10:12 PM 69.8 °F 64.4 °F 83% 30.03 in 10.0 mi SSE 3.5 mph - N/A   Overcast
10:33 PM 68.0 °F 64.4 °F 88% 30.03 in 10.0 mi ESE 3.5 mph - N/A   Overcast
10:52 PM 68.0 °F 64.4 °F 88% 30.03 in 10.0 mi ESE 5.8 mph - N/A   Mostly Cloudy
11:33 PM 66.2 °F 64.4 °F 94% 30.03 in 10.0 mi ESE 5.8 mph - N/A   Scattered Clouds
11:52 PM 66.2 °F 64.4 °F 94% 30.03 in 10.0 mi ESE 4.6 mph - N/A   Overcast